Weather History for Window Rock, AZ

Change the Weather History Date:

Monday, December 31, 2012

  Actual Average Record
Temperature  
Mean Temperature 19 °F -  
Max Temperature 26 °F 39 °F 57 °F (1980)
Min Temperature 12 °F 12 °F -17 °F (2010)
Degree Days  
Heating Degree Days 46    
Moisture  
Dew Point 18 °F    
Average Humidity 85    
Maximum Humidity 100    
Minimum Humidity 69    
Precipitation  
Precipitation 0.02 in - - ()
Sea Level Pressure  
Sea Level Pressure 29.89 in    
Wind  
Wind Speed 4 mph (WSW)    
Max Wind Speed 15 mph    
Max Gust Speed 22 mph    
Visibility 6 miles    
Events Snow    
Averages and records for this station are not official NWS values.
T = Trace of Precipitation, MM = Missing Value Source: NWS Daily Summary

Daily Weather History Graph

Daily Weather History Graph

Search for Another Location

Airport:

Trip Planner

Search our weather history database for the weather conditions in past years. The results will help you decide how hot, cold, wet, or windy it might be!

Date:

Astronomy

Dec. 31, 2012 Rise Set
Actual Time 7:25 AM MST 5:13 PM MST
Civil Twilight 6:57 AM MST 5:41 PM MST
Nautical Twilight 6:25 AM MST 6:13 PM MST
Astronomical Twilight 5:54 AM MST 6:44 PM MST
Moon 8:39 PM MST (12/31) 9:15 AM MST (12/31)
Length of Visible Light 10h 44m
Length of Day
9h 47m
Waning Gibbous, 90% of the Moon is Illuminated
Dec 31
Waning Gibbous
Jan 4
Last Quarter
Jan 11
New
Jan 18
First Quarter
Jan 26
Full

Hourly Weather History & Observations

Time (MST) Temp. Windchill Dew Point Humidity Pressure Visibility Wind Dir Wind Speed Gust Speed Precip Events Conditions
12:06 AM 26.6 °F - 24.8 °F 93% 29.80 in 2.5 mi Calm Calm - 0.01 in Snow Light Snow
12:17 AM 26.6 °F - 24.8 °F 93% 29.80 in 5.0 mi Calm Calm - 0.01 in   Overcast
12:34 AM 26.6 °F - 24.8 °F 93% 29.80 in 10.0 mi Calm Calm - 0.01 in   Overcast
12:53 AM 26.1 °F - 24.1 °F 92% 29.73 in 10.0 mi Calm Calm - 0.01 in   Overcast
1:53 AM 24.1 °F - 23.0 °F 96% 29.73 in 4.0 mi Calm Calm - 0.00 in   Overcast
2:18 AM 24.8 °F - 23.0 °F 93% 29.78 in 6.0 mi Calm Calm - N/A   Overcast
2:34 AM 24.8 °F - 23.0 °F 93% 29.79 in 2.5 mi Calm Calm - 0.00 in Snow Light Snow
2:42 AM 23.0 °F - 21.2 °F 93% 29.79 in 3.0 mi Calm Calm - 0.00 in   Overcast
2:53 AM 23.0 °F - 21.9 °F 96% 29.73 in 5.0 mi Calm Calm - 0.00 in   Overcast
3:11 AM 23.0 °F - 21.2 °F 93% 29.79 in 2.5 mi Calm Calm - 0.00 in Snow Light Snow
3:23 AM 24.8 °F - 23.0 °F 93% 29.78 in 1.8 mi Calm Calm - 0.00 in Snow Light Snow
3:44 AM 24.8 °F 16.9 °F 24.8 °F 100% 29.78 in 1.5 mi SSW 6.9 mph - 0.01 in Snow Light Snow
3:53 AM 25.0 °F 15.5 °F 23.0 °F 92% 29.73 in 2.0 mi SSW 9.2 mph - 0.01 in Snow Light Snow
4:07 AM 24.8 °F 14.6 °F 21.2 °F 86% 29.78 in 3.0 mi SW 10.4 mph - 0.00 in Snow Light Snow
4:53 AM 24.1 °F 13.7 °F 19.9 °F 84% 29.75 in 7.0 mi SW 10.4 mph - 0.00 in   Overcast
5:38 AM 21.2 °F 14.9 °F 19.4 °F 93% 29.81 in 4.0 mi SSW 4.6 mph - 0.00 in Snow Light Snow
5:53 AM 21.9 °F 13.4 °F 19.0 °F 89% 29.79 in 2.5 mi South 6.9 mph - 0.00 in Snow Light Snow
6:05 AM 23.0 °F 13.9 °F 19.4 °F 86% 29.82 in 3.0 mi SW 8.1 mph - 0.00 in Snow Light Snow
6:53 AM 21.9 °F 14.5 °F 19.0 °F 89% 29.82 in 3.0 mi SW 5.8 mph - 0.00 in Snow Light Snow
7:07 AM 21.2 °F 13.6 °F 19.4 °F 93% 29.85 in 2.5 mi WSW 5.8 mph - 0.00 in Snow Light Snow
7:22 AM 21.2 °F 8.9 °F 17.6 °F 86% 29.86 in 5.0 mi WSW 12.7 mph 18.4 mph 0.00 in Snow Light Snow
7:44 AM 21.2 °F 11.7 °F 17.6 °F 86% 29.87 in 3.0 mi SW 8.1 mph - 0.00 in Snow Light Snow
7:53 AM 21.9 °F 11.0 °F 18.0 °F 85% 29.86 in 4.0 mi SW 10.4 mph - 0.00 in Snow Light Snow
8:09 AM 21.2 °F 11.7 °F 17.6 °F 86% 29.88 in 4.0 mi SW 8.1 mph - 0.00 in Snow Light Snow
8:53 AM 21.9 °F 13.4 °F 17.1 °F 82% 29.91 in 10.0 mi West 6.9 mph 19.6 mph 0.00 in   Overcast
9:53 AM 21.9 °F 10.4 °F 17.1 °F 82% 29.94 in 10.0 mi WSW 11.5 mph 19.6 mph N/A   Overcast
10:53 AM 23.0 °F 11.1 °F 16.0 °F 74% 29.95 in 10.0 mi West 12.7 mph 21.9 mph N/A   Overcast
11:53 AM 24.1 °F 11.5 °F 17.1 °F 75% 29.94 in 7.0 mi WSW 15.0 mph - 0.00 in   Overcast
12:53 PM 26.1 °F 15.6 °F 17.1 °F 69% 29.91 in 10.0 mi West 11.5 mph - N/A   Overcast
1:53 PM 25.0 °F 13.6 °F 16.0 °F 69% 29.92 in 10.0 mi WSW 12.7 mph 19.6 mph N/A   Overcast
2:53 PM 24.1 °F 14.4 °F 17.1 °F 75% 29.96 in 3.0 mi West 9.2 mph - 0.00 in Snow Light Snow
3:09 PM 24.8 °F 15.3 °F 17.6 °F 74% 29.94 in 8.0 mi West 9.2 mph - 0.00 in Snow Light Snow
3:53 PM 23.0 °F 17.0 °F 16.0 °F 74% 29.98 in 10.0 mi West 4.6 mph - 0.00 in   Overcast
4:27 PM 24.8 °F 16.9 °F 17.6 °F 74% 29.96 in 8.0 mi WSW 6.9 mph - N/A   Overcast
4:53 PM 23.0 °F 14.7 °F 15.1 °F 72% 29.99 in 10.0 mi WNW 6.9 mph - N/A   Overcast
5:53 PM 21.0 °F 14.6 °F 15.1 °F 78% 30.03 in 10.0 mi West 4.6 mph - N/A   Overcast
6:53 PM 18.0 °F - 12.9 °F 81% 30.06 in 10.0 mi Calm Calm - N/A   Mostly Cloudy
7:53 PM 19.9 °F 13.4 °F 14.0 °F 78% 30.06 in 10.0 mi West 4.6 mph - N/A   Overcast
8:53 PM 14.0 °F - 10.9 °F 88% 30.09 in 10.0 mi Calm Calm - N/A   Scattered Clouds
9:18 PM 12.2 °F - 10.4 °F 92% 30.03 in 10.0 mi Calm Calm - N/A   Mostly Cloudy
9:53 PM 15.1 °F 5.2 °F 12.0 °F 88% 30.11 in 10.0 mi WSW 6.9 mph - N/A   Overcast
10:44 PM 15.8 °F 7.2 °F 10.4 °F 79% 30.06 in 10.0 mi West 5.8 mph - N/A   Partly Cloudy
10:53 PM 12.9 °F 5.2 °F 9.0 °F 84% 30.14 in 10.0 mi SSW 4.6 mph - N/A   Partly Cloudy
11:53 PM 14.0 °F 8.2 °F 10.0 °F 84% 30.14 in 10.0 mi West 3.5 mph - N/A   Overcast